This is the latest recevied weather packets stored in our database for station/object NN5DX-13. If no packets are shown the sender has not sent any weather packets the latest 10 day(s).
| Time | Temp. | Humidity | Pressure | Rain* | Wind** | Luminosity | Snow |
|---|---|---|---|---|---|---|---|
| 1788036919 | 36.67° C | 29% | 1017.1 hPa | 0 mm | - | - | - |
| 1788036620 | 36.11° C | 30% | 1017 hPa | 0 mm | - | - | - |
| 1788036319 | 36.11° C | 29% | 1017 hPa | 0 mm | - | - | - |
| 1788036019 | 36.67° C | 29% | 1017.3 hPa | 0 mm | - | - | - |
| 1788035719 | 36.67° C | 29% | 1017.2 hPa | 0 mm | - | - | - |
| 1788035419 | 36.67° C | 29% | 1017.5 hPa | 0 mm | - | - | - |
| 1788035119 | 36.11° C | 29% | 1017.6 hPa | 0 mm | - | - | - |
| 1788034820 | 36.11° C | 28% | 1017.7 hPa | 0 mm | - | - | - |
| 1788034520 | 37.22° C | 29% | 1017.7 hPa | 0 mm | - | - | - |
| 1788034219 | 37.22° C | 28% | 1017.8 hPa | 0 mm | - | - | - |
| 1788033919 | 36.67° C | 29% | 1018 hPa | 0 mm | - | - | - |
| 1788033619 | 36.67° C | 29% | 1018 hPa | 0 mm | - | - | - |
| 1788033319 | 36.67° C | 29% | 1018.2 hPa | 0 mm | - | - | - |
| 1788033020 | 36.67° C | 29% | 1018.2 hPa | 0 mm | - | - | - |
| 1788032719 | 36.11° C | 30% | 1018.1 hPa | 0 mm | - | - | - |
| 1788032420 | 36.11° C | 30% | 1018.3 hPa | 0 mm | - | - | - |
| 1788032120 | 36.11° C | 30% | 1018.4 hPa | 0 mm | - | - | - |
| 1788031820 | 36.11° C | 30% | 1018.4 hPa | 0 mm | - | - | - |
| 1788031520 | 36.11° C | 29% | 1018.4 hPa | 0 mm | - | - | - |
| 1788031219 | 36.11° C | 28% | 1018.4 hPa | 0 mm | - | - | - |
| 1788030919 | 36.11° C | 29% | 1018.5 hPa | 0 mm | - | - | - |
| 1788030619 | 36.11° C | 30% | 1018.7 hPa | 0 mm | - | - | - |
| 1788030319 | 36.11° C | 30% | 1018.7 hPa | 0 mm | - | - | - |
| 1788030019 | 35.56° C | 30% | 1018.7 hPa | 0 mm | - | - | - |
| 1788029719 | 36.11° C | 31% | 1018.9 hPa | 0 mm | - | - | - |
* Rain latest hour (hover to see other rain measurements)
** Current wind speed in m/s (hover to see current wind gust speed)